Weather reports worldwide

Advertisment
Carlisle, United Kingdom (3220): temperature & dewpoint: 04.04.2020 18:00:00 - 10.04.2020 18:00:00 (BST)Carlisle, United Kingdom (3220): temperature -100cm: 04.04.2020 18:00:00 - 10.04.2020 18:00:00 (BST)Carlisle, United Kingdom (3220): reduced air pressure: 04.04.2020 18:00:00 - 10.04.2020 18:00:00 (BST)Carlisle, United Kingdom (3220): visibility: 04.04.2020 18:00:00 - 10.04.2020 18:00:00 (BST)Carlisle, United Kingdom (3220): precipitation: 04.04.2020 18:00:00 - 10.04.2020 18:00:00 (BST)
Date & Time tt [°C] td [°C] tt -100cm [°C] ppp [hPa] vv [km] rr [mm]
10.04.2020 18:00:00 16,8 10,5 - 1021,2 14 0,0
10.04.2020 17:00:00 21,7 9,4 - 1020,6 17 0,0
10.04.2020 16:00:00 20,4 10,4 - 1021,0 18 0,0
10.04.2020 15:00:00 20,0 11,0 - 1021,9 16 0,0
10.04.2020 14:00:00 17,7 10,8 - 1022,6 15 0,0
10.04.2020 13:00:00 16,0 10,2 - 1023,4 17 0,0
10.04.2020 12:00:00 15,0 9,6 - 1024,0 17 0,0
10.04.2020 11:00:00 12,9 9,0 - 1024,3 19 0,0
10.04.2020 10:00:00 10,2 7,6 8,5 1024,6 24 0,0
10.04.2020 09:00:00 9,2 7,2 - 1024,7 20 0,0
10.04.2020 08:00:00 7,5 6,2 - 1024,8 17 0,0
10.04.2020 07:00:00 6,7 5,6 - 1024,5 18 0,0
10.04.2020 06:00:00 7,0 5,8 - 1024,5 16 0,0
10.04.2020 05:00:00 7,4 6,1 - 1024,7 12 0,0
10.04.2020 04:00:00 7,4 6,0 - 1025,0 10 0,0
10.04.2020 03:00:00 7,3 6,0 - 1025,5 10 0,0
10.04.2020 02:00:00 7,6 6,1 - 1025,7 10 0,0
10.04.2020 01:00:00 7,9 6,3 - 1026,2 13 0,0
10.04.2020 00:00:00 8,0 6,3 - 1026,4 16 0,0
09.04.2020 23:00:00 7,8 6,1 - 1026,5 18 0,0
09.04.2020 22:00:00 7,8 6,0 - 1026,7 21 0,0
09.04.2020 21:00:00 8,4 6,3 - 1026,7 26 0,0
09.04.2020 20:00:00 9,7 6,7 - 1026,3 30 0,0
09.04.2020 19:00:00 10,9 7,4 - 1026,2 30 0,0
09.04.2020 18:00:00 12,2 7,9 - 1026,0 35 0,0
09.04.2020 17:00:00 12,7 8,2 - 1026,1 30 0,0
09.04.2020 16:00:00 13,3 8,4 - 1026,3 40 0,0
09.04.2020 15:00:00 14,1 8,6 - 1026,7 55 0,0
09.04.2020 14:00:00 14,3 7,8 - 1026,9 75 0,0
09.04.2020 13:00:00 12,5 7,7 - 1027,5 75 0,0
09.04.2020 12:00:00 12,5 8,2 - 1027,8 17 0,0
09.04.2020 11:00:00 11,9 8,5 - 1027,9 70 0,0
09.04.2020 10:00:00 8,8 6,4 8,2 1028,0 65 0,0
09.04.2020 09:00:00 7,9 6,1 - 1027,7 45 0,0
09.04.2020 08:00:00 7,5 6,0 - 1027,3 35 0,0
09.04.2020 07:00:00 7,7 6,0 - 1026,7 40 0,0
09.04.2020 06:00:00 8,5 6,6 - 1025,9 30 0,0
09.04.2020 05:00:00 9,3 5,8 - 1025,7 50 0,0
09.04.2020 04:00:00 9,1 5,8 - 1025,6 40 0,0
09.04.2020 03:00:00 9,0 5,9 - 1025,6 30 0,0
09.04.2020 02:00:00 9,3 5,3 - 1025,9 25 0,0
09.04.2020 01:00:00 9,2 5,2 - 1025,9 40 0,0
09.04.2020 00:00:00 8,9 4,9 - 1025,8 40 0,0
08.04.2020 23:00:00 8,6 4,6 - 1025,5 40 0,0
08.04.2020 22:00:00 9,1 4,2 - 1025,2 45 0,0
08.04.2020 21:00:00 10,4 4,5 - 1024,6 50 0,0
08.04.2020 20:00:00 11,4 4,6 - 1024,3 55 0,0
08.04.2020 19:00:00 13,4 5,0 - 1024,0 55 0,0
08.04.2020 18:00:00 13,9 5,0 - 1023,9 50 0,0
08.04.2020 17:00:00 14,3 5,1 - 1024,1 60 0,0
08.04.2020 16:00:00 14,7 5,2 - 1024,1 55 0,0
08.04.2020 15:00:00 15,2 4,9 - 1024,2 75 0,0
08.04.2020 14:00:00 14,8 4,6 - 1024,4 60 0,0
08.04.2020 13:00:00 14,3 4,8 - 1024,8 - 0,0
08.04.2020 12:00:00 13,9 4,3 - 1025,0 70 0,0
08.04.2020 11:00:00 11,9 4,8 - 1025,3 45 0,0
08.04.2020 10:00:00 11,4 5,3 8,2 1025,5 45 0,0
08.04.2020 09:00:00 8,6 4,1 - 1025,6 45 0,0
08.04.2020 08:00:00 4,7 3,0 - 1025,4 40 0,0
08.04.2020 07:00:00 3,3 1,4 - 1025,4 30 0,0
08.04.2020 06:00:00 4,3 2,7 - 1025,2 35 0,0
08.04.2020 05:00:00 3,3 1,7 - 1025,5 22 0,0
08.04.2020 04:00:00 4,6 2,8 - 1025,7 30 0,0
08.04.2020 03:00:00 4,3 2,6 - 1025,8 22 0,0
08.04.2020 02:00:00 5,5 3,0 - 1026,1 30 0,0
08.04.2020 01:00:00 6,3 3,1 - 1026,4 30 0,0
08.04.2020 00:00:00 8,1 3,6 - 1026,4 35 0,0
07.04.2020 23:00:00 7,0 3,7 - 1026,4 28 0,0
07.04.2020 22:00:00 7,6 4,2 - 1026,4 28 0,0
07.04.2020 21:00:00 8,5 4,7 - 1026,3 30 0,0
07.04.2020 20:00:00 9,0 5,2 - 1026,0 29 0,0
07.04.2020 19:00:00 11,9 4,5 - 1026,0 30 0,0
07.04.2020 18:00:00 12,1 5,1 - 1026,4 30 0,0
07.04.2020 17:00:00 12,6 5,0 - 1026,8 35 0,0
07.04.2020 16:00:00 12,9 6,3 - 1027,1 35 0,0
07.04.2020 15:00:00 13,4 7,2 - 1027,5 35 0,0
07.04.2020 14:00:00 12,8 7,4 - 1027,9 17 0,0
07.04.2020 13:00:00 14,0 4,5 - 1028,1 55 0,0
07.04.2020 12:00:00 13,0 5,5 - 1028,3 15 0,0
07.04.2020 11:00:00 12,1 6,6 - 1028,9 30 0,0
07.04.2020 10:00:00 10,6 6,4 8,0 1028,8 27 0,0
07.04.2020 09:00:00 8,7 5,8 - 1028,9 21 0,0
07.04.2020 08:00:00 6,9 5,1 - 1028,6 21 0,0
07.04.2020 07:00:00 5,7 4,2 - 1028,0 20 0,0
07.04.2020 06:00:00 5,4 4,0 - 1027,8 20 0,0
07.04.2020 05:00:00 5,5 4,1 - 1027,4 18 0,0
07.04.2020 04:00:00 5,3 4,0 - 1027,1 24 0,0
07.04.2020 03:00:00 4,0 2,7 - 1026,6 21 0,0
07.04.2020 02:00:00 4,8 3,0 - 1026,0 22 0,0
07.04.2020 01:00:00 6,3 4,4 - 1025,4 22 0,0
07.04.2020 00:00:00 6,6 4,4 - 1024,5 20 0,0
06.04.2020 23:00:00 7,8 5,1 - 1023,6 22 0,0
06.04.2020 22:00:00 8,4 4,9 - 1022,8 25 0,0
06.04.2020 21:00:00 9,1 4,2 - 1021,9 30 0,0
06.04.2020 20:00:00 9,9 4,4 - 1020,8 30 0,0
06.04.2020 19:00:00 11,4 4,2 - 1019,6 35 0,0
06.04.2020 18:00:00 11,9 3,5 - 1018,6 40 0,0
06.04.2020 17:00:00 12,0 3,8 - 1017,4 40 0,0
06.04.2020 16:00:00 12,3 4,3 - 1016,5 35 0,0
06.04.2020 15:00:00 11,4 3,6 - 1015,6 40 0,0
06.04.2020 14:00:00 11,9 4,6 - 1014,6 15 0,0
06.04.2020 13:00:00 11,6 4,7 - 1013,3 15 0,0
06.04.2020 12:00:00 10,9 4,5 - 1011,8 28 0,0
06.04.2020 11:00:00 10,2 4,5 - 1010,5 29 0,0
06.04.2020 10:00:00 10,2 6,0 7,9 1009,3 26 0,0
06.04.2020 09:00:00 10,1 7,3 - 1007,6 18 0,0
06.04.2020 08:00:00 9,9 7,2 - 1006,4 17 0,0
06.04.2020 07:00:00 9,8 7,1 - 1005,4 18 0,0
06.04.2020 06:00:00 10,2 7,3 - 1003,9 22 0,0
06.04.2020 05:00:00 10,9 7,2 - 1003,3 35 0,0
06.04.2020 04:00:00 11,9 9,8 - 1002,4 23 0,2
06.04.2020 03:00:00 13,9 9,7 - 1001,3 50 0,0
06.04.2020 02:00:00 14,1 9,5 - 1001,3 50 0,0
06.04.2020 01:00:00 15,8 7,9 - 1001,2 55 0,0
06.04.2020 00:00:00 15,6 8,0 - 1001,5 55 0,0
05.04.2020 23:00:00 15,9 7,4 - 1002,1 55 0,0
05.04.2020 22:00:00 16,9 5,9 - 1002,2 65 0,0
05.04.2020 21:00:00 17,5 5,2 - 1002,2 70 0,0
05.04.2020 20:00:00 17,8 5,1 - 1002,4 70 0,0
05.04.2020 19:00:00 18,5 4,7 - 1002,7 70 0,0
05.04.2020 18:00:00 19,8 4,3 - 1003,2 65 0,0
05.04.2020 17:00:00 19,9 4,2 - 1004,1 70 0,0
05.04.2020 16:00:00 19,3 4,2 - 1004,9 55 0,0
05.04.2020 15:00:00 17,6 4,0 - 1006,0 55 0,0
05.04.2020 14:00:00 16,5 3,2 - 1007,1 70 0,0
05.04.2020 13:00:00 16,1 3,3 - 1008,1 60 0,0
05.04.2020 12:00:00 15,4 3,3 - 1009,2 65 0,0
05.04.2020 11:00:00 15,2 3,2 - 1009,7 55 0,0
05.04.2020 10:00:00 13,2 4,1 7,7 1010,6 50 0,0
05.04.2020 09:00:00 11,1 3,5 - 1011,4 60 0,0
05.04.2020 08:00:00 10,0 2,8 - 1011,9 55 0,0
05.04.2020 07:00:00 9,2 2,3 - 1012,4 65 0,0
05.04.2020 06:00:00 8,6 1,9 - 1012,8 65 0,0
05.04.2020 05:00:00 9,2 2,0 - 1013,1 60 0,0
05.04.2020 04:00:00 9,3 2,8 - 1013,7 60 0,0
05.04.2020 03:00:00 9,8 3,6 - 1013,9 55 0,0
05.04.2020 02:00:00 8,7 4,0 - 1014,4 35 0,0
05.04.2020 01:00:00 10,3 4,9 - 1014,7 45 0,0
05.04.2020 00:00:00 8,7 5,1 - 1015,0 28 0,0
04.04.2020 23:00:00 10,3 6,1 - 1015,1 23 0,0
04.04.2020 22:00:00 10,2 5,9 - 1015,0 25 0,0
04.04.2020 21:00:00 10,7 5,7 - 1014,9 30 0,0
04.04.2020 20:00:00 11,1 5,2 - 1014,7 40 0,0
04.04.2020 19:00:00 11,2 4,1 - 1014,7 60 0,0
04.04.2020 18:00:00 11,6 3,1 - 1014,9 75 0,0

tt = temperature
td = dewpoint
tt -100cm = temperature -100cm
ppp = reduced air pressure
vv = visibility
rr = precipitation

Next stations